Home > Weather > Hat Yai > Past weeks

Flag for Thailand Past Weather in Hat Yai, Thailand — Yesterday and Last 2 Weeks

Now
88 °F

Scattered clouds.


Feels Like: 98 °F
Forecast: 77 / 91 °F
Wind: 10 mph from Southwest

Location: Hat Yai Airport

Current Time: Aug 29, 2016 at 12:42:28 PM

Latest Report: Aug 29, 2016 at 12:00 PM


Visibility: N/A

Pressure: 29.80 "Hg

Humidity: 66%

Dew Point: 75 °F

Location of Hat YaiLocation

Past Weather in Hat Yai — Graph

°F

Hat Yai Temperature Yesterday

Maximum temperature yesterday: 90 °F (at 10:00 AM)
Minimum temperature yesterday: 77 °F (at 2:00 AM)
Average temperature yesterday: 82 °F

High & Low Weather Summary for the Past Weeks

 TemperatureHumidityPressure
High97 °F (Aug 18, 12:00 PM)100% (Aug 15, 9:00 PM)29.86 "Hg (Aug 15, 9:00 PM)
Low75 °F (Aug 15, 9:00 PM)20% (Aug 15, 1:30 AM)29.65 "Hg (Aug 18, 4:00 PM)
Average83 °F80%29.75 "Hg
* Reported Aug 14 11:00 AM — Aug 29 11:30 AM, Hat Yai, Weather by CustomWeather, © 2016

Note: Actual official high and low records may vary slightly from our data, if they occured in-between our weather recording intervals... More about our weather records

Advertising

Hat Yai Weather History for the Previous 24 Hours

Scroll right to see more
 ConditionsComfort  
Time TempWeatherWind HumidityBarometerVisibility
11:30 AM
Mon, Aug 29
88 °FScattered clouds.13 mph66%29.80 "HgN/A
11:00 AM90 °FScattered clouds.10 mph63%29.80 "HgN/A
10:30 AM88 °FScattered clouds.10 mph70%29.83 "HgN/A
10:00 AM86 °FScattered clouds.6 mph70%29.83 "HgN/A
9:30 AM86 °FScattered clouds.6 mph75%29.83 "HgN/A
9:00 AM84 °FScattered clouds.6 mph79%29.83 "HgN/A
8:30 AM82 °FScattered clouds.6 mph84%29.83 "HgN/A
8:00 AM81 °FScattered clouds.6 mph89%29.83 "HgN/A
7:30 AM79 °FPassing clouds.5 mph100%29.80 "HgN/A
7:00 AM79 °FScattered clouds.5 mph94%29.80 "HgN/A
6:30 AM77 °FScattered clouds.5 mph100%29.80 "HgN/A
6:00 AM77 °FPassing clouds.3 mph100%29.77 "HgN/A
5:30 AM79 °FLight rain. Partly cloudy.3 mph100%29.80 "HgN/A
5:00 AM77 °FPartly cloudy.2 mph100%29.80 "HgN/A
4:30 AM77 °FPassing clouds.2 mph100%29.77 "HgN/A
4:00 AM77 °FPassing clouds.No wind100%29.77 "HgN/A
3:30 AM77 °FPassing clouds.3 mph100%29.77 "HgN/A
3:00 AM79 °FPassing clouds.No wind100%29.77 "HgN/A
2:30 AM79 °FPassing clouds.5 mph100%29.77 "HgN/A
2:00 AM79 °FPassing clouds.3 mph100%29.80 "HgN/A
1:30 AM79 °FPassing clouds.3 mph100%29.80 "HgN/A
1:00 AM79 °FPassing clouds.3 mph94%29.80 "HgN/A
12:30 AM79 °FPassing clouds.6 mph94%29.80 "HgN/A
12:00 AM79 °FPassing clouds.6 mph100%29.83 "HgN/A
11:30 PM
Sun, Aug 28
79 °FPassing clouds.5 mph100%29.83 "HgN/A
11:00 PM79 °FPassing clouds.5 mph100%29.83 "HgN/A
10:30 PM79 °FPassing clouds.5 mph94%29.83 "HgN/A
10:00 PM81 °FPassing clouds.5 mph84%29.83 "HgN/A
9:30 PM81 °FPassing clouds.3 mph84%29.83 "HgN/A
9:00 PM81 °FPassing clouds.5 mph100%29.80 "HgN/A
8:30 PM81 °FPassing clouds.5 mph79%29.80 "HgN/A
8:00 PM81 °FPartly cloudy.6 mph79%29.77 "HgN/A
7:30 PM81 °FPartly cloudy.2 mph79%29.77 "HgN/A
7:00 PM81 °FPartly cloudy.6 mph79%29.77 "HgN/A
6:30 PM82 °FPartly cloudy.9 mph74%29.77 "HgN/A
6:00 PM82 °FPartly sunny.10 mph79%29.77 "HgN/A
5:30 PM86 °FPartly sunny.6 mph70%29.77 "HgN/A
5:00 PM86 °FPartly sunny.8 mph70%29.74 "HgN/A
4:30 PM86 °FPartly sunny.7 mph70%29.74 "HgN/A
4:00 PM88 °FPartly sunny.9 mph62%29.74 "HgN/A
3:30 PM88 °FPartly sunny.7 mph59%29.74 "HgN/A
3:00 PM90 °FPartly sunny.10 mph55%29.74 "HgN/A
2:30 PM90 °FPartly sunny.8 mph59%29.74 "HgN/A
2:00 PM88 °FPartly sunny.6 mph62%29.77 "HgN/A
1:30 PM86 °FPartly sunny.5 mph66%29.80 "HgN/A
1:00 PM84 °FPartly sunny.5 mph70%29.80 "HgN/A
12:30 PM84 °FBroken clouds.7 mph70%29.83 "HgN/A
12:00 PM84 °FBroken clouds.12 mph70%29.83 "HgN/A
Weather by CustomWeather, © 2016

See weather overviewHow to use our weather pages